{"data":{"norad_id":62813,"intl_designator":"2025-018H","name":"STARLINK-32855","alt_names":[],"object_type":"PAYLOAD","status":"ACTIVE","operator":null,"country":"US","launch_date":"2025-01-24","launch_site_code":"AFWTR","launch_vehicle":null,"mission":null,"orbit_class":"UNKNOWN","rcs_meters":null,"size_class":null,"mass_kg":null,"dimensions":null,"purposes":["comms"],"wikipedia_slug":null,"has_3d_model":false,"image_url":null,"decayed_at":null,"tle_current":{"epoch":"2026-05-25T04:20:21.926112Z","epoch_age_seconds":56095,"freshness":"FRESH","line1":"1 62813U 25018H   26145.18080933  .00015567  00000+0  53642-3 0  9992","line2":"2 62813  53.1603 314.0085 0001644  86.7319 273.3870 15.30211620 74888","mean_motion":15.3021162,"eccentricity":0.0001644,"inclination_deg":53.1603,"raan_deg":314.0085,"arg_perigee_deg":86.7319,"mean_anomaly_deg":273.387,"bstar":0.00053642,"rev_number":7488,"period_min":94.104631096711,"perigee_km":474.05368903704,"apogee_km":476.30705978975,"semimajor_km":6853.3173744134,"source":"CELESTRAK","updated_at":"2026-05-25T13:38:19.774215Z"}}}